Regional Weather Roundup
Issued by NWS

Home | Current Version | Previous Version | Graphics & Text | Print | Product List | Glossary On
Versions: 1 2 3 4 5 6 7 8 9 10 11 12 13 14 15 16 17 18 19 20 21 22 23 24 25 26 27 28 29 30 31 32 33 34 35 36 37 38 39 40 41 42 43 44 45 46 47 48 49 50
000
ASUS43 KDTX 182101
RWRMI
MICHIGAN HOURLY REGIONAL WEATHER ROUNDUP
NATIONAL WEATHER SERVICE DETROIT/PONTIAC MI
500 PM EDT WED OCT 18 2017

NOTE: "FAIR" INDICATES FEW OR NO CLOUDS BELOW 12,000 FEET WITH NO
SIGNIFICANT WEATHER AND/OR OBSTRUCTION TO VISIBILITY.

MIZ047>049-052>055-059>063-066>070-074>076-081>083-182200-
SOUTHEAST LOWER MICHIGAN

CITY           SKY/WX    TMP DP  RH WIND       PRES   REMARKS
ADRIAN         SUNNY     68  39  34 SW20G25   30.15S
ALMA           SUNNY     68  33  27 SW10G22   30.06F
ANN ARBOR      SUNNY     68  38  33 S16G23    30.13S
BAD AXE        SUNNY     68  36  30 S14G21    30.07F
CARO           SUNNY     69  35  29 S16G24    30.07F
DETROIT CITY   SUNNY     67  42  40 SW13G22   30.13F
DETROIT        MOSUNNY   69  40  34 SW17G25   30.14F
FLINT          SUNNY     68  39  34 SW13G20   30.09F
GROSSE ILE     SUNNY     67  51  56 S10G16    30.14F
HILLSDALE      SUNNY     66  36  32 S13       30.14S
HOWELL         SUNNY     68  37  31 S13       30.11F

CITY           SKY/WX    TMP DP  RH WIND       PRES   REMARKS
JACKSON        SUNNY     67  40  37 S14       30.12F
LAMBERTVILLE   SUNNY     71  37  28 SW8G16    30.14F
LANSING        SUNNY     68  35  29 S16G26    30.09F
LAPEER         FAIR      67  37  33 SW15      30.11S
MASON          SUNNY     69  37  30 S6        30.11S
MONROE         SUNNY     71  35  26 S12G22    30.14S
PONTIAC        MOSUNNY   68  39  34 SW12G20   30.11F
PORT HOPE        N/A     69  38  32 SW8G17    30.03F
PORT HURON     SUNNY     66  43  42 S12G24    30.13F
TRI CITIES     SUNNY     69  39  33 S18       30.06F
MIDLAND        FAIR      69  39  33 S15G25    30.03F
TROY           SUNNY     69  38  31 S10       30.14F
SAGINAW HB     SUNNY     68  36  30 S21       30.06F
$$
MIZ043>046-050>051-056>058-064>065-071>073-077>080-182200-
SOUTHWEST LOWER MICHIGAN

CITY           SKY/WX    TMP DP  RH WIND       PRES   REMARKS
BATTLE CREEK   SUNNY     67  38  34 SW18      30.10F
BENTON HARBOR  SUNNY     69  37  30 S14G20    30.07F
BIG RAPIDS     SUNNY     66  33  28 SW14G28   30.02F
COLDWATER      SUNNY     68  36  30 SW8G16    30.12F
FREMONT        FAIR      66  39  37 SW17G25   30.02F
HOLLAND        SUNNY     68  39  34 S14G24    30.05F
GRAND RAPIDS   MOSUNNY   69  39  33 S15       30.06F
IONIA          FAIR      68  36  29 S18G25    30.06F
KALAMAZOO      SUNNY     68  37  32 S15       30.10F
LUDINGTON      SUNNY     64  46  52 S20G29    29.97F
MARSHALL       SUNNY     67  36  31 S13G18    30.11F
MOUNT PLEASANT SUNNY     71  37  29 SW12G21   30.03F
MUSKEGON       MOSUNNY   65  46  50 S22G29    30.04F
SOUTH HAVEN    SUNNY     69  35  28 S14G20    30.07F
$$
MIZ016>042-182200-
NORTHERN LOWER MICHIGAN

CITY           SKY/WX    TMP DP  RH WIND       PRES   REMARKS
ALPENA         SUNNY     70  45  40 S14G22    29.95F
BEAVER ISLAND  SUNNY     66  46  48 S25G38    29.85F
BELLAIRE       SUNNY     71  40  32 S13G24    29.91F
CADILLAC       SUNNY     67  34  29 SW18G30   29.98F
CHARLEVOIX     SUNNY     69  44  39 S18G26    29.92F
FRANKFORT      SUNNY     67  47  49 S14G30    29.93F
GAYLORD        SUNNY     67  41  38 SW20G31   29.94F
GRAYLING       SUNNY     67  40  36 S14G24    29.97F
HARBOR SPRINGS SUNNY     69  43  38 SW17G23   29.88F
HOUGHTON LAKE  SUNNY     66  40  38 SW14G24   30.00F
MANISTEE       SUNNY     68  43  40 S12G23    29.95F
OSCODA         SUNNY     67  43  40 S15G28    29.99F
PELLSTON       SUNNY     70  45  40 SW15G28   29.89F
ROGERS CITY    SUNNY     71  43  36 SW13G23   29.92F
TRAVERSE CITY  MOSUNNY   71  40  32 SW13G24   29.90F
$$
MIZ007>008-015-182200-
EASTERN UPPER MICHIGAN

CITY           SKY/WX    TMP DP  RH WIND       PRES   REMARKS
KINROSS        SUNNY     68  47  46 S12G25    29.86F
MACKINAC ISLAN SUNNY     69  44  40 SW17G26   29.87F
NEWBERRY       SUNNY     64  48  57 S29G39    29.79F
S. S. MARIE    SUNNY     68  46  45 S21G29    29.84F
MUNISING         N/A     67  51  56 S17G28    29.71F
$$
MIZ004>006-011>014-085-182200-
CENTRAL UPPER MICHIGAN

CITY           SKY/WX    TMP DP  RH WIND       PRES   REMARKS
MANISTIQUE     SUNNY     61  53  74 S16G25    29.81F
ESCANABA       SUNNY     63  54  72 S16G22    29.79F
MENOMINEE      SUNNY     68  49  50 SW21G30   29.81F
SAWYER-GWINN   SUNNY     68  46  45 S22G30    29.73F
$$
MIZ001>003-009>011-084-182200-
WESTERN UPPER MICHIGAN

CITY           SKY/WX    TMP DP  RH WIND       PRES   REMARKS
IRON MOUNTAIN  MOSUNNY   71  43  36 S18G26    29.73F
HOUGHTON       MOSUNNY   73  41  31 W16G25    29.62R
COPPER HARBOR    N/A     72  42  34 VRB7G20   29.58S
IRONWOOD       MOSUNNY   69  45  41 SW18G29   29.70R
$$

ABBREVIATIONS USED IN REMARKS
   TC - TEMPERATURE IN CELSIUS
  WCI - WIND CHILL INDEX
   HX - HEAT INDEX
  VSB - VISIBILITY





USA.gov is the U.S. government's official web portal to all federal, state and local government web resources and services.